{"data":{"norad_id":69261,"epoch":"2026-09-19T23:25:45.533280Z","epoch_age_seconds":72157,"freshness":"FRESH","line1":"1 69261U 26117Z   26262.97622145  .00019816  00000+0  59606-3 0  9998","line2":"2 69261  53.1581 156.4020 0001139  87.2581 272.8552 15.34400059 17574","mean_motion":15.34400059,"eccentricity":0.0001139,"inclination_deg":53.1581,"raan_deg":156.402,"arg_perigee_deg":87.2581,"mean_anomaly_deg":272.8552,"bstar":0.00059606,"rev_number":1757,"period_min":93.847754472747,"perigee_km":461.92389316329,"apogee_km":463.48223653006,"semimajor_km":6840.8400648467,"source":"CELESTRAK","updated_at":"2026-09-20T09:00:44.152396Z"}}